Location: San Antonio de Areco
(34.2500°S, 59.4670°W)
Time: 06:58:49
(UTC-03:00)

ISS - Visible Passes

Search period start: 11 December 2016 00:00
Search period end: 21 December 2016 00:00
Orbit: 401 x 409 km, 51.6° (Epoch: 11 December)

Date Brightness Start Highest point End Pass type
(mag) Time Alt. Az. Time Alt. Az. Time Alt. Az.
11 Dec -1.4 02:57:06 31° SE 02:57:06 31° SE 02:58:59 10° SE visible
11 Dec -0.5 04:31:53 10° SW 04:32:40 11° SSW 04:33:27 10° SSW visible
12 Dec 0.1 02:06:56 10° ESE 02:06:56 10° ESE 02:06:59 10° ESE visible
12 Dec -0.9 03:39:36 15° SW 03:40:26 16° SSW 03:42:40 10° S visible
13 Dec -0.9 02:49:22 22° S 02:49:22 22° S 02:51:13 10° SSE visible
14 Dec 0.0 01:59:05 13° SE 01:59:05 13° SE 01:59:30 10° SE visible
15 Dec -0.4 02:41:23 14° SSW 02:41:23 14° SSW 02:42:52 10° S visible
16 Dec 0.1 01:50:59 13° SSE 01:50:59 13° SSE 01:51:31 10° SSE visible
18 Dec 0.2 01:42:33 11° S 01:42:33 11° S 01:42:52 10° S visible
